Westerly, RI

5:11 AM EDT on August 18, 2017 (GMT -0400)
Westerly State

Weather History for KWST - November, 2012

Change the Weather History Date:

Friday, November 23, 2012

  Actual Average (KGON) Record (KGON)
Temperature  
Mean Temperature 41 °F -  
Max Temperature 52 °F 48 °F 65 °F (1982)
Min Temperature 30 °F 31 °F 13 °F (1972)
Degree Days  
Heating Degree Days 24    
Moisture  
Dew Point 38 °F    
Average Humidity 90    
Maximum Humidity 100    
Minimum Humidity 71    
Precipitation  
Precipitation 0.00 in - - ()
Sea Level Pressure  
Sea Level Pressure 29.95 in    
Wind  
Wind Speed 2 mph (SW)    
Max Wind Speed 9 mph    
Max Gust Speed -    
Visibility 6 miles    
Events Fog    
Averages and records for this station are not official NWS values.
T = Trace of Precipitation, MM = Missing Value Source: NWS Daily Summary

Daily Weather History Graph

Daily Weather History Graph

Search for Another Location

Airport or City:

Trip Planner

Search our weather history database for the weather conditions in past years. The results will help you decide how hot, cold, wet, or windy it might be!

Date:

Astronomy

Nov. 23, 2012 Rise Set
Actual Time 6:45 AM EST 4:21 PM EST
Civil Twilight 6:15 AM EST 4:52 PM EST
Nautical Twilight 5:41 AM EST 5:25 PM EST
Astronomical Twilight 5:08 AM EST 5:58 PM EST
Moon 1:37 PM EST (11/23) 1:58 AM EST (11/23)
Length of Visible Light 10h 36m
Length of Day
9h 36m
Waxing Gibbous, 79% of the Moon is Illuminated
Nov 23
Waxing Gibbous
Nov 28
Full
Dec 6
Last Quarter
Dec 13
New
Dec 20
First Quarter

Hourly Weather History & Observations

Time (EST) Temp. Windchill Dew Point Humidity Pressure Visibility Wind Dir Wind Speed Gust Speed Precip Events Conditions
12:53 AM 32.0 °F - 30.0 °F 92% 30.13 in 5.0 mi Calm Calm - N/A   Clear
1:53 AM 30.0 °F - 28.9 °F 96% 30.12 in 6.0 mi Calm Calm - N/A   Scattered Clouds
1:58 AM 30.2 °F - 28.4 °F 93% 30.12 in 5.0 mi Calm Calm - N/A   Mostly Cloudy
2:37 AM 30.2 °F - 30.2 °F 100% 30.11 in 1.5 mi Calm Calm - N/A   Overcast
2:46 AM 30.2 °F - 28.4 °F 93% 30.11 in 0.2 mi Calm Calm - N/A Fog Light Freezing Fog
2:53 AM 30.0 °F - 30.0 °F 100% 30.11 in 0.5 mi Calm Calm - N/A Fog Light Freezing Fog
3:15 AM 30.2 °F - 28.4 °F 93% 30.10 in 0.2 mi Calm Calm - N/A Fog Light Freezing Fog
3:20 AM 30.2 °F - 28.4 °F 93% 30.10 in 0.2 mi Calm Calm - N/A Fog Light Freezing Fog
3:37 AM 30.2 °F - 30.2 °F 100% 30.09 in 0.5 mi Calm Calm - N/A Fog Light Freezing Fog
3:47 AM 30.2 °F - 30.2 °F 100% 30.09 in 2.0 mi Calm Calm - N/A   Overcast
3:48 AM 30.0 °F - 30.0 °F 100% 30.09 in 2.0 mi Calm Calm - N/A   Overcast
4:01 AM 30.2 °F 26.7 °F 30.2 °F 100% 30.08 in 1.8 mi North 3.5 mph - N/A   Overcast
4:08 AM 30.2 °F 26.7 °F 28.4 °F 93% 30.08 in 0.8 mi NNW 3.5 mph - N/A   Overcast
4:20 AM 30.2 °F - 28.4 °F 93% 30.08 in 0.2 mi Calm Calm - N/A Fog Light Freezing Fog
4:26 AM 30.2 °F - 30.2 °F 100% 30.08 in 0.2 mi Calm Calm - N/A Fog Light Freezing Fog
4:39 AM 30.2 °F - 30.2 °F 100% 30.08 in 0.8 mi Calm Calm - N/A   Overcast
4:43 AM 30.2 °F - 30.2 °F 100% 30.08 in 1.0 mi Calm Calm - N/A   Overcast
4:53 AM 32.0 °F - 32.0 °F 100% 30.09 in 2.5 mi Calm Calm - N/A   Overcast
5:01 AM 32.0 °F - 32.0 °F 100% 30.08 in 4.0 mi Calm Calm - N/A   Overcast
5:53 AM 33.1 °F - 32.0 °F 96% 30.07 in 5.0 mi Calm Calm - N/A   Overcast
6:53 AM 34.0 °F - 34.0 °F 100% 30.06 in 6.0 mi Calm Calm - N/A   Overcast
7:53 AM 37.9 °F - 37.0 °F 97% 30.06 in 5.0 mi Calm Calm - N/A   Overcast
8:53 AM 46.0 °F 44.8 °F 44.1 °F 93% 30.04 in 9.0 mi South 3.5 mph - N/A   Overcast
9:53 AM 48.9 °F - 43.0 °F 80% 30.02 in 10.0 mi SSW 9.2 mph - N/A   Overcast
10:41 AM 50.0 °F - 42.8 °F 76% 29.99 in 10.0 mi SW 5.8 mph - N/A   Overcast
10:53 AM 50.0 °F - 42.1 °F 74% 29.99 in 10.0 mi South 9.2 mph - N/A   Overcast
11:53 AM 50.0 °F - 43.0 °F 77% 29.95 in 10.0 mi Variable 5.8 mph - N/A   Overcast
12:53 PM 52.0 °F - 44.1 °F 74% 29.91 in 10.0 mi SW 8.1 mph - N/A   Overcast
1:14 PM 51.8 °F - 42.8 °F 71% 29.90 in 10.0 mi SSW 9.2 mph - N/A   Scattered Clouds
1:53 PM 52.0 °F - 43.0 °F 71% 29.88 in 10.0 mi SSW 8.1 mph - N/A   Clear
2:17 PM 51.8 °F - 44.6 °F 76% 29.87 in 10.0 mi SSW 6.9 mph - N/A   Mostly Cloudy
2:53 PM 51.1 °F - 45.0 °F 80% 29.86 in 10.0 mi South 8.1 mph - N/A   Overcast
3:53 PM 52.0 °F - 45.0 °F 77% 29.84 in 10.0 mi SSW 6.9 mph - N/A   Overcast
4:53 PM 51.1 °F - 45.0 °F 80% 29.82 in 10.0 mi SW 6.9 mph - N/A   Mostly Cloudy
5:53 PM 51.1 °F - 45.0 °F 80% 29.81 in 10.0 mi SW 4.6 mph - N/A   Overcast
6:53 PM 51.1 °F - 46.9 °F 86% 29.79 in 10.0 mi Calm Calm - N/A   Overcast
7:53 PM 50.0 °F - 46.0 °F 86% 29.77 in 10.0 mi Calm Calm - N/A   Mostly Cloudy
8:45 PM 48.2 °F - 46.4 °F 93% 29.76 in 10.0 mi SW 3.5 mph - N/A   Scattered Clouds
8:53 PM 50.0 °F - 46.9 °F 89% 29.76 in 10.0 mi SW 4.6 mph - N/A   Partly Cloudy
9:12 PM 51.8 °F - 48.2 °F 88% 29.75 in 10.0 mi SW 6.9 mph - N/A   Mostly Cloudy
9:53 PM 51.1 °F - 48.0 °F 89% 29.73 in 10.0 mi SW 3.5 mph - N/A   Overcast
10:40 PM 50.0 °F - 46.4 °F 87% 29.71 in 10.0 mi Calm Calm - N/A   Scattered Clouds
10:53 PM 50.0 °F - 48.0 °F 93% 29.70 in 10.0 mi SW 3.5 mph - N/A   Mostly Cloudy
11:08 PM 50.0 °F - 48.2 °F 94% 29.70 in 10.0 mi SSW 3.5 mph - N/A   Scattered Clouds
11:38 PM 50.0 °F - 48.2 °F 94% 29.68 in 10.0 mi WSW 4.6 mph - N/A   Mostly Cloudy
11:53 PM 50.0 °F - 48.0 °F 93% 29.68 in 10.0 mi SW 3.5 mph - N/A   Mostly Cloudy